{"data":{"norad_id":62213,"epoch":"2026-09-21T08:43:19.530336Z","epoch_age_seconds":103480,"freshness":"FRESH","line1":"1 62213U 24229X   26264.36342049  .00009837  00000+0  36652-3 0  9995","line2":"2 62213  43.0003 245.9498 0001675 285.8203  74.2464 15.27579286100486","mean_motion":15.27579286,"eccentricity":0.0001675,"inclination_deg":43.0003,"raan_deg":245.9498,"arg_perigee_deg":285.8203,"mean_anomaly_deg":74.2464,"bstar":0.00036652,"rev_number":10048,"period_min":94.266792774513,"perigee_km":481.90198498415,"apogee_km":484.20048304254,"semimajor_km":6861.1882340133,"source":"CELESTRAK","updated_at":"2026-09-22T09:00:49.543419Z"}}